This is the latest recevied weather packets stored in our database for station/object E20EHQ-13. If no packets are shown the sender has not sent any weather packets the latest 10 day(s).
| Time | Temp. | Humidity | Pressure | Rain* | Wind** | Luminosity | Snow |
|---|---|---|---|---|---|---|---|
| 1778069880 | 31.11° C | 79% | 1006 hPa | 0 mm | - | 1 W/m² | - |
| 1778069279 | 31.11° C | 78% | 1005.8 hPa | 0 mm | - | 1 W/m² | - |
| 1778068979 | 31.11° C | 78% | 1005.8 hPa | 0 mm | - | 1 W/m² | - |
| 1778068679 | 31.11° C | 78% | 1005.9 hPa | 0 mm | - | 1 W/m² | - |
| 1778068079 | 31.11° C | 76% | 1006 hPa | 0 mm | - | 1 W/m² | - |
| 1778067779 | 31.67° C | 76% | 1005.9 hPa | 0 mm | - | 1 W/m² | - |
| 1778067479 | 31.67° C | 76% | 1005.7 hPa | 0 mm | - | 2 W/m² | - |
| 1778066880 | 31.67° C | 75% | 1005.5 hPa | 0 mm | - | 12 W/m² | - |
| 1778066580 | 31.67° C | 75% | 1005.3 hPa | 0 mm | - | 23 W/m² | - |
| 1778065980 | 32.22° C | 73% | 1004.8 hPa | 0 mm | - | 57 W/m² | - |
| 1778065079 | 32.78° C | 71% | 1004.7 hPa | 0 mm | - | 92 W/m² | - |
| 1778064479 | 32.78° C | 68% | 1004.5 hPa | 0 mm | - | 100 W/m² | - |
| 1778064179 | 32.78° C | 67% | 1004.5 hPa | 0 mm | - | 111 W/m² | - |
| 1778063579 | 32.78° C | 67% | 1004.4 hPa | 0 mm | - | 130 W/m² | - |
| 1778063279 | 33.33° C | 67% | 1004.4 hPa | 0 mm | - | 149 W/m² | - |
| 1778062979 | 33.33° C | 66% | 1004.4 hPa | 0 mm | - | 151 W/m² | - |
| 1778062380 | 32.78° C | 67% | 1004.5 hPa | 0 mm | - | 163 W/m² | - |
| 1778062079 | 32.78° C | 68% | 1004.5 hPa | 0 mm | - | 182 W/m² | - |
| 1778061780 | 32.22° C | 70% | 1004.4 hPa | 0 mm | - | 185 W/m² | - |
| 1778061179 | 32.22° C | 72% | 1004.3 hPa | 0 mm | - | 211 W/m² | - |
| 1778060579 | 31.67° C | 74% | 1004.4 hPa | 0 mm | - | 228 W/m² | - |
| 1778059979 | 32.22° C | 73% | 1004.5 hPa | 0 mm | - | 230 W/m² | - |
| 1778059679 | 32.22° C | 72% | 1004.7 hPa | 0 mm | - | 224 W/m² | - |
| 1778059079 | 32.22° C | 72% | 1004.7 hPa | 0 mm | - | 231 W/m² | - |
| 1778058779 | 32.22° C | 72% | 1004.7 hPa | 0 mm | - | 241 W/m² | - |
* Rain latest hour (hover to see other rain measurements)
** Current wind speed in m/s (hover to see current wind gust speed)